This is the latest recevied weather packets stored in our database for station/object OE6JUE. If no packets are shown the sender has not sent any weather packets the latest 10 day(s).
| Time | Temp. | Humidity | Pressure | Rain* | Wind** | Luminosity | Snow |
|---|---|---|---|---|---|---|---|
| 1777432238 | 10.56° C | 71% | 1021.4 hPa | 0 mm | - | - | - |
| 1777431938 | 10.56° C | 70% | 1021.4 hPa | 0 mm | - | - | - |
| 1777431637 | 10.56° C | 70% | 1021.4 hPa | - | - | - | - |
| 1777431337 | 10.56° C | 70% | 1021.4 hPa | 0 mm | - | - | - |
| 1777431037 | 10.56° C | 69% | 1021.1 hPa | 0 mm | - | - | - |
| 1777430738 | 11.11° C | 64% | 1021.4 hPa | 0 mm | - | - | - |
| 1777430437 | 11.11° C | 61% | 1021.3 hPa | 0 mm | - | - | - |
| 1777430138 | 11.11° C | 61% | 1021.3 hPa | 0 mm | - | - | - |
| 1777429837 | 11.67° C | 60% | 1021.3 hPa | 0 mm | - | - | - |
| 1777429537 | 11.67° C | 60% | 1021.2 hPa | 0 mm | - | - | - |
| 1777429237 | 11.67° C | 60% | 1021.3 hPa | 0 mm | - | - | - |
| 1777428937 | 11.67° C | 60% | 1021.3 hPa | 0 mm | - | - | - |
| 1777428638 | 12.22° C | 58% | 1021.1 hPa | 0 mm | - | - | - |
| 1777428337 | 12.22° C | 55% | 1021.1 hPa | 0 mm | - | - | - |
| 1777428038 | 12.22° C | 54% | 1021.2 hPa | - | - | - | - |
| 1777427737 | 12.22° C | 54% | 1021.3 hPa | 0 mm | - | - | - |
| 1777427437 | 12.22° C | 54% | 1021.3 hPa | 0 mm | - | - | - |
| 1777427137 | 12.22° C | 55% | 1021.2 hPa | 0 mm | - | - | - |
| 1777426837 | 12.22° C | 56% | 1021.2 hPa | 0 mm | - | - | - |
| 1777426537 | 12.22° C | 56% | 1021.2 hPa | 0 mm | - | - | - |
| 1777426238 | 12.22° C | 56% | 1021.1 hPa | 0 mm | - | - | - |
| 1777425938 | 12.22° C | 56% | 1021.2 hPa | 0 mm | - | - | - |
| 1777425637 | 12.78° C | 52% | 1021.2 hPa | 0 mm | - | - | - |
| 1777425337 | 12.78° C | 52% | 1021.2 hPa | 0 mm | - | - | - |
| 1777425037 | 12.78° C | 51% | 1021.1 hPa | 0 mm | - | - | - |
* Rain latest hour (hover to see other rain measurements)
** Current wind speed in m/s (hover to see current wind gust speed)